Location: ????
(36.1975°N, 43.5914°E)
Time: 16:08:59
(UTC+00:00)

Daily predictions for brighter satellites

Satellite Brightness Start Highest point End
(mag) Time Altitude Azimuth Time Altitude Azimuth Time Altitude Azimuth
NOSS 3-2 (A) 4.1 14:41:07 10° S 14:45:58 31° ESE 14:51:12 10° NE
Cosmos 1271 Rocket 2.8 14:44:18 10° N 14:48:18 86° ENE 14:52:19 10° S
CORIOLIS 4.2 14:43:41 10° SSE 14:49:02 86° ENE 14:54:25 10° NNW
COBE Rocket 4.0 14:46:20 10° NNE 14:51:26 66° E 14:56:24 10° S
Cosmos 2239 Rocket 4.5 14:47:10 10° N 14:53:20 80° E 14:59:28 10° S
Cosmos 1300 4.5 14:54:28 10° ESE 14:56:07 12° E 14:57:45 10° ENE
Cosmos 2082 Rocket 3.7 14:53:15 10° NNE 14:56:50 17° NE 15:00:24 10° E
H-2A R/B 3.3 14:54:37 10° S 14:58:27 67° W 15:02:22 10° NNW
Okean-O 2.7 14:55:13 10° SSE 14:59:39 89° WNW 15:04:06 10° NNW
Cosmos 1821 Rocket 4.2 14:56:26 10° N 15:02:34 76° W 15:08:44 10° S
Cosmos 1605 Rocket 4.3 14:57:25 10° N 15:03:13 42° ENE 15:08:56 10° SSE
COSMO-SKYMED 1 2.5 14:58:55 10° NNE 15:03:15 66° ESE 15:07:32 10° S
BREEZE-M DEB (TANK) 3.8 14:53:07 10° NW 15:04:44 88° SW 15:07:54 10° SE
OAO 2 Rocket 3.8 15:00:10 10° W 15:05:20 62° SSW 15:10:35 10° ESE
Cosmos 839 Rocket 4.3 15:00:35 10° NNW 15:06:50 58° ENE 15:14:07 10° SE
Cosmos 1934 Rocket 4.0 15:02:03 10° N 15:08:25 75° E 15:14:47 10° SSE
Cosmos 1727 Rocket 4.4 15:03:28 10° SSE 15:09:04 38° E 15:14:41 10° NNE
CZ-4 R/B 1.7 15:06:19 10° SSE 15:10:18 47° ENE 15:14:22 10° N
COSMOS 2406 3.2 15:05:01 10° NNW 15:10:45 67° ENE 15:16:26 10° SSE
NOSS 3-2 (C) 4.1 15:06:09 10° S 15:10:58 30° ESE 15:16:10 10° NE
Cosmos 1953 Rocket 4.2 15:07:32 10° NNW 15:11:50 60° W 15:16:04 10° S
Cosmos 44 4.4 15:08:10 10° SSE 15:12:14 25° ESE 15:15:33 13° ENE
CZ-4C R/B 4.5 15:06:46 10° NW 15:13:52 42° WSW 15:21:34 10° S
EO 1 Delta rocket 4.2 15:09:43 10° SE 15:14:00 39° ENE 15:18:27 10° N
NOAA 12 4.3 15:10:45 10° S 15:16:00 75° WSW 15:21:20 10° NNW
SL-4 R/B 3.9 15:15:41 10° WNW 15:18:56 27° SW 15:22:01 10° S
Cosmos 1535 Rocket 4.5 15:13:09 10° N 15:19:20 88° W 15:25:27 10° S
Cosmos 1703 3.1 15:15:48 10° N 15:19:44 76° E 15:23:37 10° S
Cosmos 1777 Rocket 4.0 15:17:47 10° N 15:22:56 59° ENE 15:28:02 10° SSE
BREEZE-M DEB (TANK) 4.0 15:07:37 10° SW 15:24:20 76° NW 15:28:07 13° NE
OAO 3 Rocket 3.4 15:20:46 10° W 15:25:40 71° S 15:29:11 19° ESE
Meteosat 1 Rocket2 4.3 15:26:52 10° SW 15:29:54 23° S 15:31:42 16° SE
FengYun 1-2 T 4.2 15:25:20 10° SSE 15:30:58 88° ENE 15:36:37 10° NNW
Unknown 2.8 15:29:42 10° NW 15:32:19 65° SW 15:33:45 23° SSE
Cosmos 2278 Rocket 2.7 15:27:03 10° SSW 15:32:39 64° WNW 15:38:19 10° NNE
Cosmos 1242 Rocket 3.8 15:30:00 10° NNW 15:33:30 44° W 15:36:58 10° SSW
Cosmos 2297 4.1 15:30:04 10° S 15:35:16 38° ESE 15:40:31 10° NE
Delta 2 Rocket 2.9 15:33:35 10° WSW 15:37:04 62° SSE 15:38:13 36° ESE
Cosmos 1908 4.3 15:33:18 10° SSW 15:37:04 48° W 15:40:52 10° N
Cosmos 1812 Rocket 3.5 15:33:02 10° S 15:37:22 61° E 15:41:46 10° NNE
Meteor 1-11 4.3 15:32:00 10° N 15:37:48 88° W 15:43:36 10° S
Cosmos 1076 Rocket 4.2 15:33:56 10° NNE 15:37:50 31° ENE 15:39:07 26° ESE
ASTEX 1 4.4 15:36:01 10° N 15:40:48 49° W 15:45:35 10° SSW
ATLAS 3B R/B 3.1 15:35:07 10° S 15:41:15 37° ESE 15:45:04 21° ENE
CSL-04 Rocket 3.7 15:41:24 10° SSE 15:46:56 88° WSW 15:52:28 10° NNW
Cosmos 2100 Rocket 4.4 15:41:35 10° N 15:47:15 37° ENE 15:51:37 16° SE
YAOGAN 1 2.6 15:43:17 10° S 15:47:35 82° WSW 15:51:56 10° NNW
CENTAUR R/B 2.6 15:44:56 10° S 15:50:16 44° ESE 15:53:31 25° ENE
H-2A R/B 4.2 15:52:50 12° NNE 15:52:50 12° NNE 15:53:22 10° NNE
Envisat 4.3 15:48:22 10° SSW 15:53:08 41° W 15:57:56 10° NNW
Cosmos 2058 4.3 15:54:24 10° N 15:56:28 24° NNE 15:56:28 24° NNE
Lacrosse 5 2.5 15:54:49 10° NNW 15:59:27 35° NE 15:59:49 34° NE
Cosmos 1153 Rocket 4.3 15:55:38 10° N 16:01:47 83° E 16:07:56 10° S
NOAA 11 4.0 15:56:26 10° SSE 16:01:52 75° ENE 16:07:18 10° N
IRS-1A Rocket 4.2 16:03:14 26° SE 16:06:11 57° ENE 16:11:35 10° N
CZ-3 Stage 3 2.2 16:03:24 10° WSW 16:07:06 29° SSW 16:07:06 29° SSW
STPSAT 2 (USA 217) 4.5 16:04:31 10° NNW 16:09:07 80° ENE 16:10:20 49° SSE
USA 238 DEB 4.4 16:06:02 10° SW 16:12:28 50° NW 16:19:08 10° NNE
Shenzhou-11 Module 4.1 16:09:49 10° NW 16:11:01 21° NW 16:11:01 21° NW
USA 238 4.4 16:06:08 10° SW 16:12:35 50° NW 16:19:15 10° NNE
Cosmos 1833 Rocket 2.7 16:07:17 10° NNW 16:12:54 79° WSW 16:17:29 16° SSE
Cosmos 1939 Rocket 3.0 16:14:54 37° S 16:16:24 72° WSW 16:20:26 10° NNW
Unknown 4.4 16:14:04 10° NW 16:16:04 35° WNW 16:16:04 35° WNW
CZ-2D R/B 4.5 16:26:41 20° SSW 16:28:57 41° W 16:32:37 10° NNW
Cosmos 1300 4.4 16:27:56 10° SW 16:31:24 33° W 16:34:52 10° NNW
Cosmos 2061 Rocket 4.1 16:28:59 10° N 16:34:06 54° NE 16:34:06 54° NE
Ariane Rocket 3.4 16:32:23 22° S 16:35:40 62° WSW 16:40:44 10° NNW
Cosmos 1459 Rocket 3.9 16:33:53 10° N 16:40:09 86° W 16:43:09 34° S
Cosmos 2082 Rocket 2.4 16:35:46 10° NNW 16:41:26 67° WSW 16:42:41 52° SSW
Cosmos 1461 4.1 16:37:53 10° NW 16:41:21 41° W 16:41:21 41° W
Cosmos 468 Rocket 4.2 16:37:48 10° SSW 16:43:03 68° WNW 16:43:43 61° NNW
H-2A R/B 4.1 15:30:51 10° WSW 16:45:53 69° S 16:49:49 49° ESE
NOSS 3-3 (A) 4.5 16:42:04 10° NNW 16:49:52 89° ENE 16:51:36 61° SSE
NOSS 3-3 (C) 4.5 16:42:10 10° NNW 16:49:58 88° ENE 16:51:39 62° SE
BREEZE M DEB (TANK) 3.7 16:59:18 10° WNW 17:02:09 58° W 17:02:09 58° W
Gbstr 26 Del rocket 4.3 17:02:39 10° NW 17:08:56 73° WSW 17:08:56 73° WSW
ADEOS Rocket 3.4 17:02:37 10° N 17:10:13 79° WNW 17:17:08 10° SSW
ATLAS 3B R/B 3.7 17:25:36 10° WSW 17:31:50 39° NW 17:32:24 38° NW
CENTAUR R/B 4.0 17:35:50 10° WSW 17:40:48 31° NW 17:40:48 31° NW
Lacrosse 5 4.5 17:37:48 10° WNW 17:39:03 17° WNW 17:39:03 17° WNW
ATLAS 2AS CENTAUR R/B 4.0 23:41:33 41° ENE 23:41:33 41° ENE 23:46:48 10° NE
